Theta_e
304 302 301 301 300 298 297 296 296 295 294 293 292 292 291 291 290 289 289 288 288 288 287 287 287 286 284 283 283 283 283 282 282 283 283 283 283 283 282 282 282 282 281
302 301 300 300 299 297 296 296 295 294 293 292 292 291 290 290 289 289 289 288 288 288 288 287 287 286 285 284 283 283 282 282 281 282 282 283 282 282 282 281 281 281 280
300 300 299 298 297 297 296 295 294 294 293 292 291 290 290 289 289 289 288 288 288 288 287 287 287 286 286 285 283 282 282 281 281 281 282 281 281 281 280 280 279 280 279
299 299 298 298 297 296 295 295 294 293 292 291 290 290 289 289 289 288 288 288 288 287 287 287 287 286 286 285 283 282 282 281 281 280 281 281 280 279 278 277 278 278 277
298 298 298 297 296 295 294 294 293 292 291 290 289 289 289 288 288 288 288 288 287 287 287 287 286 286 285 284 283 282 281 280 280 279 279 279 278 277 276 276 276 276 276
298 297 296 295 295 294 294 293 292 291 290 289 289 288 288 288 288 288 287 287 287 287 287 287 286 285 284 284 282 281 280 279 279 278 278 276 276 276 276 276 276 276 277
297 296 295 295 294 295 294 292 292 290 289 289 288 288 288 288 287 287 287 287 287 286 286 286 286 285 284 283 282 281 280 278 278 277 276 276 276 276 275 275 276 275 275
296 295 295 294 294 294 293 293 291 290 289 288 288 288 288 287 287 287 287 286 286 286 286 286 286 285 284 283 282 281 280 279 278 277 276 275 275 275 275 274 273 273 274
297 295 295 295 295 294 294 294 291 290 289 288 288 287 287 287 286 286 286 286 286 285 285 285 285 284 283 282 281 280 279 278 277 276 276 275 274 274 273 273 273 272 272
297 297 297 296 296 296 295 294 292 290 289 288 287 287 287 287 286 286 286 286 285 285 285 285 284 284 282 281 278 277 277 277 276 277 276 275 274 274 274 273 272 271 270
300 299 297 296 294 293 293 293 292 290 289 289 288 288 287 287 286 286 285 285 285 284 284 284 284 283 281 280 277 277 277 276 275 275 274 274 274 274 274 273 272 271 271
297 294 292 292 292 292 292 292 291 290 289 288 288 287 287 287 286 285 285 285 284 284 284 284 283 282 280 278 277 277 276 275 275 274 274 274 273 273 273 273 272 272 272
292 291 291 291 290 290 289 289 289 288 288 288 288 288 288 287 286 285 285 284 284 283 284 283 282 281 278 277 277 276 275 274 274 273 273 273 273 273 272 272 272 272 272
291 291 291 290 290 290 289 289 288 288 288 288 288 288 288 287 286 284 284 283 283 283 282 281 280 277 276 276 277 275 274 273 273 273 272 272 272 272 272 271 271 271 272
291 291 290 290 290 290 289 289 289 288 288 287 287 286 286 286 285 283 283 283 282 280 280 280 279 278 277 276 275 274 274 273 272 271 271 271 271 271 271 271 270 270 271
290 290 290 290 290 289 289 289 289 288 288 287 286 285 284 284 283 283 282 281 280 278 278 277 277 277 276 275 275 274 273 272 271 271 271 270 270 270 270 270 270 269 270
290 290 289 289 289 289 288 288 287 287 286 285 284 282 282 282 281 281 278 277 276 277 277 277 276 276 275 274 274 273 272 271 271 270 270 270 270 269 269 270 269 269 270
290 289 289 288 288 288 287 287 286 285 284 282 281 281 281 281 279 278 277 275 276 275 275 275 275 274 274 273 273 272 271 271 270 270 269 269 269 269 269 269 269 269 269
289 289 288 288 287 287 286 285 284 282 281 281 281 281 280 279 277 275 274 273 273 273 273 272 272 272 271 271 271 270 270 270 269 269 269 269 269 268 269 268 268 269 269
288 288 287 286 285 285 283 282 282 282 282 281 280 277 276 275 274 273 272 271 271 270 270 270 270 269 269 269 269 269 269 269 269 268 268 268 268 268 268 268 268 268 268
286 285 285 284 283 282 282 281 281 281 278 276 275 274 273 272 272 271 270 269 268 267 268 267 267 267 267 267 267 268 268 268 268 268 267 267 267 268 268 268 268 268 268
284 283 282 282 281 281 280 279 277 275 274 273 273 272 271 271 270 269 268 267 266 265 265 265 265 265 265 266 266 267 267 268 268 266 266 267 267 267 268 268 268 268 268
281 281 280 279 278 277 275 275 274 273 272 272 271 270 270 269 268 267 267 266 266 265 265 265 264 264 265 265 265 266 266 267 266 265 266 266 267 267 268 268 268 268 268
278 277 276 275 275 274 274 273 272 271 271 270 270 269 268 267 267 267 266 266 266 265 265 264 264 265 265 265 265 265 266 266 265 266 266 266 266 267 267 267 267 267 267
275 274 274 273 273 272 271 271 270 270 269 269 268 268 267 267 266 266 266 266 265 265 265 265 265 265 265 265 265 266 265 265 265 265 265 265 266 266 267 267 267 267 267
273 272 272 271 271 270 270 269 269 268 268 267 267 266 266 266 266 266 266 266 265 265 265 265 265 265 265 266 265 265 265 265 265 265 265 265 266 266 266 267 267 267 267
Wind_Speed
36 35 33 30 27 24 21 20 19 18 16 13 10 8 6 4 3 3 4 6 8 10 11 13 15 16 17 18 19 20 21 23 29 36 35 37 41 43 43 43 45 46 44
37 35 32 29 27 24 22 22 20 18 16 14 12 10 8 7 5 5 5 6 8 10 12 14 16 18 19 20 22 23 24 25 29 35 38 39 42 44 45 47 45 44 44
38 36 34 31 28 25 23 22 21 20 18 17 15 12 11 10 8 8 8 8 10 12 13 15 17 19 21 23 24 25 27 28 29 33 39 41 42 44 46 46 45 44 43
40 38 36 33 28 25 23 22 22 21 20 19 17 15 14 12 12 12 12 12 12 14 15 17 19 20 22 24 26 28 29 31 32 34 38 41 44 45 45 45 49 46 47
41 40 37 32 29 26 24 23 23 23 22 21 20 18 16 16 15 15 15 16 16 17 18 19 20 22 24 24 27 29 31 32 32 34 37 41 44 44 42 44 46 49 50
43 41 37 33 31 27 25 26 25 25 25 24 23 21 19 19 19 18 19 19 20 20 20 20 21 23 24 24 26 28 30 29 30 31 35 36 42 38 39 43 45 46 45
43 40 36 34 31 28 27 27 26 27 26 26 25 23 22 21 21 21 21 22 23 22 22 22 24 24 25 25 26 29 29 26 26 25 31 33 36 39 42 43 43 44 45
42 39 36 34 31 30 28 27 28 28 27 27 26 24 23 23 24 24 24 25 24 24 23 24 26 27 26 26 28 29 30 29 30 29 29 35 36 34 37 41 42 43 44
38 37 34 33 32 30 29 29 28 28 28 27 26 26 26 25 26 26 26 27 26 26 26 26 27 29 27 27 28 29 30 30 31 32 35 32 33 35 34 35 36 33 38
31 29 28 28 28 27 26 26 26 26 25 26 26 27 27 28 28 28 27 28 28 27 28 28 29 29 28 27 24 26 29 31 32 37 35 34 33 31 29 28 28 30 33
22 23 23 23 22 21 22 23 23 24 25 26 27 28 29 30 29 28 28 29 29 29 29 29 29 29 28 26 20 24 31 27 33 34 33 32 31 29 28 26 27 29 33
19 20 21 21 20 19 19 20 22 24 25 26 26 27 28 29 29 29 28 28 28 31 31 30 30 30 29 25 19 27 28 30 33 32 31 29 29 28 27 27 28 29 29
20 20 20 19 18 17 19 20 22 24 25 26 27 28 28 29 29 29 28 28 28 30 32 32 32 32 23 23 29 30 29 30 30 30 28 27 26 27 27 28 29 30 31
18 19 20 20 19 18 20 21 23 25 27 29 31 32 30 29 29 28 28 29 30 31 30 30 29 27 25 27 29 28 29 30 27 27 26 25 25 25 27 28 30 32 34
18 21 22 22 22 22 22 23 25 27 29 31 33 32 31 32 29 28 29 30 30 29 29 31 31 30 29 28 29 31 31 29 26 24 24 24 24 26 26 27 28 31 32
19 23 25 25 25 25 26 27 29 30 31 32 33 33 30 30 29 28 29 30 29 27 28 33 35 32 33 32 33 34 31 27 24 24 23 23 24 25 27 26 26 28 31
23 24 25 27 27 28 29 29 29 30 31 31 28 25 25 25 24 24 22 20 23 24 30 36 39 39 37 36 34 34 31 26 25 23 23 22 23 24 24 25 25 27 29
25 26 27 27 27 27 28 27 27 26 24 22 22 22 24 25 25 26 26 24 29 31 34 37 38 38 37 35 35 33 29 26 24 23 23 22 22 22 22 22 24 26 28
24 25 26 25 25 24 23 22 20 18 17 19 21 23 25 26 26 27 25 25 30 34 36 38 37 36 36 35 34 31 28 26 23 23 22 21 20 20 19 19 22 23 25
22 22 22 21 20 18 17 15 16 17 19 21 22 23 23 25 27 26 26 27 28 30 33 36 37 36 34 34 32 28 27 24 22 22 21 20 18 17 17 18 20 23 24
17 17 16 15 14 13 14 15 17 19 19 20 20 21 21 23 27 27 27 26 26 26 27 25 24 24 24 26 26 25 25 24 21 20 19 18 17 16 14 15 18 20 22
13 12 11 11 12 13 14 15 16 17 18 19 19 19 20 21 22 22 23 22 22 23 23 24 24 24 24 24 23 23 24 23 19 18 19 18 17 15 14 15 16 18 20
9 10 10 11 11 12 13 14 15 16 17 17 18 18 18 18 18 17 17 18 18 19 20 21 23 25 23 22 21 22 24 21 18 19 19 18 16 15 14 14 15 17 18
7 8 9 10 11 12 13 14 15 15 16 17 17 16 16 15 15 16 16 16 17 16 16 17 18 19 20 20 20 21 21 19 19 18 19 19 17 15 15 15 14 15 17
7 8 9 10 11 12 12 13 14 15 15 15 14 14 14 15 15 15 15 15 16 16 15 16 17 18 18 18 19 18 18 20 20 19 19 20 19 17 16 16 15 14 15
7 8 9 9 10 11 11 12 12 13 13 13 14 15 16 16 16 16 16 16 16 17 16 16 16 17 17 17 16 18 18 18 18 17 19 19 19 19 17 18 16 15 16
Wind_Direction
197 197 198 197 198 200 202 203 208 208 210 210 207 208 209 222 251 293 325 336 344 340 339 335 330 323 318 310 308 309 307 305 303 309 315 319 320 323 325 323 323 322 322
201 201 201 203 204 204 205 209 211 214 215 216 215 214 218 227 238 267 292 313 324 329 331 332 330 322 314 308 307 306 305 304 305 308 313 317 318 321 322 322 323 322 322
204 205 205 207 208 208 210 213 215 219 220 221 221 223 227 228 239 260 274 295 308 315 319 322 322 319 313 308 306 304 305 305 305 306 310 314 317 319 322 322 323 323 323
208 209 211 212 211 212 214 217 221 223 225 225 226 228 229 234 248 259 272 287 295 301 306 309 314 316 313 309 306 305 304 304 305 308 310 313 318 323 326 327 323 323 323
213 214 216 214 214 214 216 221 223 226 228 229 231 230 232 243 251 263 274 282 288 292 295 302 309 313 311 306 304 305 305 305 308 309 311 316 319 325 325 324 318 319 318
217 219 217 215 217 217 222 226 226 229 230 232 234 234 241 248 256 265 273 280 284 285 290 296 306 308 307 306 305 304 304 306 307 308 312 314 314 319 321 315 312 311 311
222 222 220 220 221 223 226 228 234 233 235 237 237 241 249 253 261 268 272 277 279 282 286 296 300 305 307 305 304 302 302 300 301 304 304 312 313 309 311 311 305 301 303
224 225 225 223 224 227 229 235 236 236 239 240 243 249 253 257 262 267 271 274 277 279 284 291 298 304 304 302 301 301 300 301 310 314 306 301 306 308 300 300 303 303 304
225 225 225 224 226 229 234 237 237 239 241 244 249 253 258 262 264 266 269 273 275 279 282 289 296 299 301 299 297 297 300 302 305 304 302 302 307 310 310 310 313 316 314
224 225 224 225 229 233 236 239 241 242 246 248 252 256 261 264 264 268 271 273 275 279 282 288 293 298 298 298 292 293 292 296 301 303 310 310 311 312 313 315 319 320 316
222 220 221 223 227 232 236 236 239 242 247 250 255 259 263 265 267 268 268 271 276 279 283 288 292 293 292 290 281 279 281 295 293 302 305 309 311 312 315 320 324 321 317
209 209 214 219 222 221 226 231 236 241 247 252 256 261 265 268 269 267 268 271 275 279 284 286 289 291 293 290 275 266 272 286 297 299 302 306 309 313 318 322 322 322 320
205 213 216 213 219 226 234 240 243 245 249 253 257 263 268 270 271 271 271 270 272 274 281 286 289 292 287 272 275 278 283 296 296 296 300 305 309 313 317 320 319 325 323
218 219 216 222 228 235 240 243 246 252 256 259 262 265 269 271 269 268 270 273 275 276 280 282 282 277 275 277 284 286 294 299 292 294 298 304 307 311 315 320 324 327 326
221 223 226 233 240 246 250 256 259 261 263 264 266 266 264 267 272 271 271 274 276 277 278 278 277 276 278 280 283 287 294 295 289 290 293 299 304 309 313 318 323 327 329
231 234 238 243 249 254 258 260 261 263 265 268 268 267 265 269 274 276 279 282 286 290 291 289 287 285 283 286 286 289 293 290 287 287 292 298 304 308 312 317 323 328 329
242 244 246 249 254 258 260 261 263 264 268 269 266 265 272 279 281 285 291 279 275 268 261 262 268 272 278 282 283 288 290 287 284 286 292 298 301 304 310 316 324 328 331
252 253 255 255 256 258 259 260 261 263 263 263 265 269 275 279 277 271 269 274 271 265 262 265 267 272 277 278 282 284 284 282 281 284 289 295 298 301 307 316 323 330 332
256 256 255 254 254 254 256 259 263 265 267 268 270 273 277 279 281 282 279 272 270 270 271 271 272 273 274 278 280 281 279 277 279 284 289 292 294 297 304 313 322 329 331
257 255 252 251 252 257 260 264 269 272 274 276 279 282 284 286 285 286 286 285 280 276 272 270 272 272 274 275 277 276 272 274 278 282 286 287 290 293 300 312 325 329 333
251 249 249 249 251 257 265 268 270 274 277 280 285 289 292 293 298 299 298 294 289 284 280 279 276 274 277 276 273 270 269 273 276 280 282 282 287 290 289 307 322 329 334
244 243 245 252 257 259 263 269 273 279 285 289 292 293 291 293 293 295 296 297 294 290 288 283 280 280 283 281 276 272 271 273 275 277 276 279 283 286 283 297 316 329 335
246 251 254 257 261 268 276 282 285 287 289 291 290 289 291 295 301 305 305 303 297 293 291 285 280 280 279 276 273 273 273 274 274 272 275 276 279 284 277 287 308 324 335
252 256 264 273 278 280 282 285 287 287 285 286 289 293 298 302 306 308 307 303 300 296 292 289 286 283 281 278 274 272 271 274 273 273 276 277 278 282 278 279 298 313 327
261 270 277 282 285 287 287 285 284 285 287 290 292 295 300 303 306 306 305 304 305 302 299 294 291 288 284 281 277 273 273 273 275 276 276 277 276 278 281 278 289 302 318
263 271 277 281 284 286 288 290 293 295 296 297 298 298 300 301 302 303 305 306 305 302 301 298 295 291 287 282 279 277 274 274 274 275 276 277 277 276 280 277 276 294 303